Showing default

LYNK TOWER 4, 55034

Orbit data source: Space-Track

LYNK TOWER 4, 55034 is a payload satellite owned by Lynk (US) in SSO that was launched on Tue, 03 Jan 2023 UTC via an FALCON 9 launch vehicle from the Air Force Eastern Test Range (AFETR). Payload-class satellites include a variety of spacecraft equipped with specific instruments for various scientific and technological missions. These include communications satellites like Starlink; space stations such as the ISS; scientific satellites like the Hubble; Earth observation satellites from companies like Planet Labs, Umbra, and HawkEye 360; GPS; miniature CubeSats for education and research; and military/defense satellites.

Loading next visibility...
Identifier
55034, 2023-001AB
Orbit
SSO
Country
Flag of USUS
Related business
Manufacturer
Lynk
Mission
Operational Commercial Communications
Bus & Motor
LYNK SHANNON, Unknown motor
Mass
~80 kg wet, ~80 kg dry
Launch date (UTC)
2023-01-03 (3 years ago)
Launch vehicle
FALCON 9
Launch site
Air Force Eastern Test Range (AFETR)
Object type
Payload
Rocket body
Debris
Shape & HBR
Box, 0.5 m
Radar Cross Section
0.650 m², Medium (>0.1 m² and < 1m²)

Expand to show TLE details & history
Last TLE update: 19 hours ago

TLE from 19 hours ago
0 LYNK TOWER 4
1 55034U 23001AB  26035.09345774  .00010152  00000-0  33940-3 0  9999
2 55034  97.3396  95.3531 0007500 225.9658 134.0966 15.31163799171442
Epoch: 2026-02-04T02:14Z
TLE epoch observation values (Epoch: 2026-02-04T02:14:34.748Z)
Latitude
-0.00006°
Longitude
-72.55666°
Altitude
479.024 km
Speed
7.624 km/s
True Right ascension
06h 21m 24s
True Declination
0° 00' 00"
Sunlit
Object was in full shadow at epoch
Visualization orbit readout
Latitude
Unknown
Longitude
Unknown
Altitude
Unknown
Speed
Unknown
Apparent Right ascension
Unknown
Apparent Declination
Unknown
Sunlit
N/A
Visualization observer readout
Local Sidereal Time
23:28:05
Azimuth
Unknown
Elevation
Unknown
Doppler factor
Unknown
Orbital elements
Apogee altitude
474.423 km
Perigee altitude
464.151 km
Semi-major axis
6,847.424 km
Eccentricity
0.00075
Inclination
97.3396°
RAAN
95.3531°
Arg. of periapsis
225.9658°
True anomaly
134.15828°
Mean anomaly
134.0966°
Eccentric anomaly
134.12744°
Mean motion
3.83047 °/min
Orbital period
93.98 mins
BSTAR
0.0003394
Loading maneuver chart data...
Computing Atmospheric mass density...

Documentation

Showing up to 5 results
|